星链-3578 (STARLINK-3578 )

导读

STARLINK-3578是美国太空探索技术公司SpaceX星链(Starlink)星座中的卫星,于2022年3月3日发射。星链项目旨在构建全球低轨卫星互联网系统,提供高速低延迟宽带服务。作为星链组网的一员,该卫星运行在近地轨道,助力实现全球覆盖,尤其为偏远地区等提供互联网接入服务,也是SpaceX推进大规模卫星星座部署的组成部分。

基本信息
目录编号:
51868
目录名称:
STARLINK-3578
国际标识:
2022-022S
轨道中心:
EARTH
卫星名称:
星链-3578
卫星全名:
星链-3578 (STARLINK-3578 )
卫星状态:
在轨 (已飞行1567 天)
发射日期:
2022-03-03 UTC
国别 :
美国 (US)
星等 :
--
轨道信息
数据来源 国际轨道数据 AOE轨道数据
星历时间 2026-06-17T20:38:11+0800
4小时前
查看轨道信息
2026-06-16T08:00:00+0800
1天前
查看轨道信息
半长轴 6917.894km 6917.911km
偏心率 0.0001194 0.0001065
轨道倾角 53.160° 53.159°
近地点辐角 91.278° 71.945°
升交点赤经 280.837° 287.699°
平近点角 268.834° 271.891°
近地点 538.931km 539.037km
远地点 540.583km 540.511km
周期 95.438分钟 95.438分钟
每日圈数 15.088356 15.0883
详细信息
固有亮度:
5
最大亮度:
2.5
卫星平台:
Starlink v1.5
覆盖范围:
全球
运营商:
太空探索技术公司
运营商所在国:
美国
制造商(研发单位):
太空探索技术公司
制造商所在国:
美国
使用方式:
暂无
卫星简介
星链(Starlink)计划是由太空探索技术公司(SpaceX)提出的一个巨型低轨卫星互联网星座项目,计划在2019年至2024年间在太空搭建由约1.2万颗卫星组成的“星链”网络,其中1584颗将部署在地球上空550千米处的近地轨道,并从2020年开始工作。该卫星仍在工作。
2D轨道图
3D轨道图
轨道高度分析图
轨道倾角分析图
轨道综合分析图
查看轨道综合分析图